Starlink 32388

operational
NORAD ID: 62144 Int'l Des: 2024-224 Owner: SPXS Country: US Constellation: starlink
LEOCIRCULAR

Starlink 32388について

説明を読み込み中...

リアルタイム位置

3D地球を読み込み中...

次回通過

高度履歴

Altitude vs Time

uPlot chart will show altitude changes over time

軌道要素

1 62144U 24224F 25351.10725285 .00031724 00000-0 11563-2 0 9992
2 62144 43.0007 271.9650 0001923 271.1540 88.9091 15.27611175 59766
Epoch: Dec 17, 2025 • Age: 20 hours

現在のステータス

高度 494.6 km
速度 7.62 km/s
衛星直下点 -42.48°S, 99.86°E
打ち上げ日 Nov 30, 2024
運用期間 1 years
タイプ internet

技術仕様

分類 Payload
質量 730.00 kg
乾燥質量 700.00 kg
総質量 730.00 kg
長さ 0.30 m
直径 4.10 m
スパン 29.00 m
形状 Box + pan
製造者 SPXS
バスタイプ Starlink V2M
フェーズステータス In Orbit
所有者/国 SPXS/US

大規模コンステレーション

Loading constellations...